IRIDIUM 6

Last updated on Wed Nov 29 2017 00:19:02 GMT+0000 (Greenwich Mean Time)

1 24794U 97020C 17332.26440249 .00000224 00000-0 62167-4 0 9995 2 24794 86.3984 250.2335 0001711 93.9663 266.1733 14.42030180 76714
UTC large
Height (km)
Speed (km/s)
/
Latitude / Longitude
Inclination (degrees)
Orbital Period (minutes)
Azimuth
Elevation
Range (km)
Doppler Factor

Next 0 passes for location: London (51.5072 / 0.1276)

Sorry there are no passes over London.